CDT,Max TemperatureF,Mean TemperatureF,Min TemperatureF,Max Dew PointF,MeanDew PointF,Min DewpointF,Max Humidity, Mean Humidity, Min Humidity, Max Sea Level PressureIn, Mean Sea Level PressureIn, Min Sea Level PressureIn, Max VisibilityMiles, Mean VisibilityMiles, Min VisibilityMiles, Max Wind SpeedMPH, Mean Wind SpeedMPH, Max Gust SpeedMPH,PrecipitationIn, CloudCover, Events, WindDirDegrees
2012-5-1,75,64,53,61,55,43,100,81,47,29.78,29.64,29.49,10,9,5,21,9,30,0.24,5,Rain-Thunderstorm,151
2012-5-2,78,66,55,63,57,52,100,78,41,29.77,29.70,29.54,10,9,2,13,4,,0.00,2,Thunderstorm,164
2012-5-3,73,64,55,66,58,52,100,79,47,29.94,29.82,29.72,10,9,1,17,5,50,2.44,3,Rain-Thunderstorm,20
2012-5-4,68,59,50,55,53,48,100,84,60,29.99,29.95,29.87,10,10,7,23,9,31,0.13,2,Rain,57
2012-5-5,59,54,48,55,52,46,100,95,87,30.07,29.96,29.90,10,8,2,18,9,23,0.25,8,Rain-Thunderstorm,56
2012-5-6,66,60,53,61,56,54,100,93,78,30.02,29.96,29.81,10,10,4,26,9,32,1.03,6,Rain-Thunderstorm,357
2012-5-7,64,56,48,54,44,37,100,66,37,30.02,29.96,29.90,10,10,7,18,8,28,0.00,3,,279
2012-5-8,57,52,48,50,47,43,94,83,67,30.00,29.91,29.87,10,10,5,15,8,20,0.10,5,Rain,301
2012-5-9,62,54,46,48,42,36,94,66,37,30.09,30.02,29.95,10,10,5,9,5,,0.00,3,,15
2012-5-10,73,60,48,46,42,39,76,51,33,29.94,29.87,29.78,10,10,10,15,7,23,0.00,1,,148
2012-5-11,64,57,50,54,45,36,82,62,37,30.25,30.00,29.75,10,10,10,22,11,31,0.00,1,Rain,308
2012-5-12,66,55,44,45,32,23,87,44,21,30.38,30.32,30.26,10,10,10,9,3,,0.00,1,,306
2012-5-13,73,60,48,39,32,27,71,35,19,30.29,30.19,30.06,10,10,7,14,3,21,0.00,1,,259
2012-5-14,84,70,55,45,38,30,63,34,14,30.06,29.95,29.83,10,10,10,13,6,18,0.00,0,,253
2012-5-15,69,60,51,43,38,32,58,40,26,30.10,29.96,29.82,10,10,10,22,9,26,0.00,1,,319
2012-5-16,69,56,44,41,34,27,81,45,20,30.19,30.11,30.00,10,9,0,10,3,,0.00,1,,86
2012-5-17,89,72,55,48,42,36,49,35,18,30.00,29.80,29.66,10,8,0,18,9,31,0.00,1,Rain,157
2012-5-18,91,78,64,55,50,46,60,41,21,29.74,29.72,29.65,10,10,4,16,8,28,0.15,2,Rain-Thunderstorm,166
2012-5-19,80,68,55,59,56,52,94,60,44,29.91,29.78,29.70,10,10,7,23,9,28,0.12,2,Rain-Thunderstorm,178
2012-5-20,62,56,48,54,48,39,100,83,42,30.19,30.04,29.85,10,9,2,20,11,26,0.23,5,Rain-Thunderstorm,342
2012-5-21,73,58,44,54,46,39,100,63,29,30.25,30.18,30.06,10,9,2,8,2,,0.00,1,,149
2012-5-22,84,72,59,50,43,37,51,37,28,30.05,29.82,29.61,10,10,10,13,8,26,0.00,0,,157
2012-5-23,80,70,59,64,54,43,100,65,33,29.62,29.53,29.42,10,10,7,15,9,25,0.47,4,Rain-Thunderstorm,147
2012-5-24,60,58,55,59,56,52,100,95,72,29.73,29.53,29.46,10,8,2,18,6,24,0.61,7,Rain-Thunderstorm,333
2012-5-25,64,57,50,57,49,39,94,74,51,30.11,29.98,29.75,10,10,7,16,6,24,0.00,2,Rain,285
2012-5-26,64,58,53,63,58,54,100,95,82,30.18,30.01,29.81,10,8,2,21,8,29,0.32,7,Rain-Thunderstorm,79
2012-5-27,87,74,62,72,67,63,100,82,49,29.81,29.68,29.54,10,8,4,20,11,28,1.03,4,Rain-Thunderstorm,145
2012-5-28,75,66,55,64,55,39,100,72,40,29.77,29.69,29.62,10,10,7,20,6,31,0.13,3,Rain,250
2012-5-29,60,55,50,52,43,37,94,66,54,29.97,29.85,29.74,10,10,10,17,10,28,0.00,6,Rain,278
2012-5-30,57,50,44,48,42,39,93,71,54,30.05,30.01,29.96,10,10,7,13,7,17,0.00,5,Rain,334
2012-5-31,62,54,46,48,42,36,100,65,37,30.07,30.04,30.00,10,10,2,10,5,22,0.00,4,,358